"Pseudo-MPEC" for XG02E65

Created 2016 Apr 15 13:15:31 UT using Find_Orb

Astrometry:
     XG02E65  C2016 04 14.34200 14 33 40.38 +01 22 55.4          20.1 VqNEOCP703
     XG02E65  C2016 04 14.34802 14 33 41.86 +01 22 59.3          19.9 VqNEOCP703
     XG02E65  C2016 04 14.36009 14 33 44.77 +01 23 08.3          19.7 VqNEOCP703
     XG02E65  C2016 04 14.39107 14 33 52.19 +01 23 31.3          20.1 VqNEOCP703
     XG02E65  C2016 04 14.39758 14 33 53.81 +01 23 35.8          19.2 VqNEOCP703
     XG02E65  C2016 04 14.40409 14 33 55.46 +01 23 41.1          20.0 VqNEOCP703
     XG02E65  C2016 04 14.41059 14 33 56.94 +01 23 45.5         x20.2 VqNEOCP703
     XG02E65  C2016 04 14.42753 14 34 01.38 +01 23 57.5          19.9 VqNEOCPG96
     XG02E65  C2016 04 14.43073 14 34 02.18 +01 23 59.9          19.9 VqNEOCPG96
     XG02E65  C2016 04 14.43395 14 34 03.00 +01 24 02.3          19.9 VqNEOCPG96
     XG02E65  C2016 04 14.43715 14 34 03.85 +01 24 04.7          19.9 VqNEOCPG96
     XG02E65 KC2016 04 14_-Astrometry8@$%UPq+ig/F!sKy'uVtov;,?*]_cwlU=q4L!+2D113
     XG02E65 KC2016 04 14LAj';p'Bk7p;heG-p^m3[9hRd#%ebk0ifTp'$w#p5N1Wm2d=p1PR113
     XG02E65 KC2016 04 14K?*ivcU^T?MAsxxuZredacted;Hdb3AUE`s;q#GvB,frou1$:8yg113
     XG02E65 KC2016 04 156U?25APQTLaSf4I77p44T,LO=PCVOdl**XtKc%Z5f3U6l8-Zc425113
     XG02E65 KC2016 04 15=P?:`n%RS/e'4N,n=M\r'rd?YEyw322QRkJ.-Ys4H!uHRjO%UI8T113
     XG02E65 KC2016 04 15H5A4HLPTrRTBaV4P$6%tT'MEW,TZDb\4see)q60Gj(TxJ;nOE*e$H36
     XG02E65 KC2016 04 15%t,,s=lMwji3$L*:\,^d`75!+o**J/YDo?=21D/!gBZ9'Nv3g`sXH36
     XG02E65 KC2016 04 15ON=EXHy\1XZwwlbuUcbQwXLRE98qhF4g%6f;!DB[usM]I\1NEOCPH36

Station data:
(113) Volkssternwarte Drebach, Schoenbrunn (N50.6767 E13.0166)  Germany.
    0.18-m f/9.0 refractor.
(703) Catalina Sky Survey (N32.41712 W110.73264)  US/Arizona.   Observers E.
    J. Christensen, A. R. Gibbs, A. D. Grauer, R. E. Hill, J. A. Johnson, R. A.
    Kowalski, S. M. Larson, F. C. Shelly.  0.68 m Schmidt + CCD.
(G96) Mt. Lemmon Survey (N32.44287 W110.78872)  US/Arizona.   Observers E. J.
    Christensen, A. R. Gibbs, A. D. Grauer, R. E. Hill, J. A. Johnson, R. A.
    Kowalski, S. M. Larson, F. C. Shelly.  1.5-m reflector + CCD.
(H36) Sandlot Observatory, Scranton (N38.7977 W95.7064)  US/Kansas.   Observer
    G. Hug.  0.56-m reflector + CCD.

Orbital elements:  XG02E65
   Perihelion 2016 Jun 8.349560 +/- 0.0628 TT =  8:23:22 (JD 2457547.849560)
Epoch 2016 Apr 15.0 TT = JDT 2457493.5   Earth MOID: 0.0019   Ve: 0.0137
M 332.511495 +/- 0.15                                         Find_Orb
n   0.505772344 +/- 0.00234         Peri.  272.583970 +/- 0.019
a   1.560148711 +/- 0.0048          Node    29.306504 +/- 0.0043
e   0.61592908 +/- 0.00152          Incl.    8.864434 +/- 0.020
P   1.95/711.77d           H 25.9   G  0.15   U  8.7
q 0.599207750 +/- 0.000534    Q 2.521089673 +/- 0.0102
18 of 19 observations 2016 Apr. 14-15 (25.9 hr); mean residual 0".374

Orbital elements:  XG02E65 
   Perigee 2016 Apr 18.260583 +/- 0.00266 TT =  6:15:14 (JD 2457496.760583)
Epoch 2016 Apr 18.2 TT = JDT 2457496.7                        Find_Orb
q589442.7544 +/- 1990               (J2000 equatorial)
H   25.9  G 0.15                    Peri.   94.455290 +/- 0.0046
                                    Node   209.142482 +/- 0.0035
e 576.04181901 +/- 4.59             Incl.    8.808035 +/- 0.0030
18 of 19 observations 2016 Apr. 14-15 (25.9 hr); mean residual 0".374
Residuals in arcseconds: 
160414 703 .152- .093-    160414 G96 .079+ .118-    160415 113 .209+ .742-
160414 703 .552+ .527-    160414 G96 .243- .073-    160415 113 .600+ .650-
160414 703 .914+ .236-    160414 G96 .395- .044-    160415 H36 .158- .147+
160414 703 .523- .288+    160414 G96 .074- 3.4m-    160415 H36 .098- .078+
160414 703 .298- .042+    160414 113 .184- .626+    160415 H36 .121+ .119-
160414 703 .217+ .588+    160414 113 .332- .263+
160414 703(1.95- .233+)   160414 113 .117- .586+

Ephemerides for (253) Goldstone DSS 14, Fort Irwin:
Assumes power=430.00 kW, Tsys=17.0 deg K, gain 0.94 K/Jy
Assumed rotation period = 0.30 hours, diameter 27.3 meters
Date (UTC) HH   RA              Dec         delta   r     elong  mag alt  az  SNR " sig PA
---- -- -- --  ------------   ------------  ------ ------ -----  --- --- --- ---- ---- ---
................
2016 04 17 06  15 29 13.376   +03 21 35.99  .01214 1.0145 149.9 17.7 +31 110 85.7   54  82
2016 04 17 07  15 32 06.883   +03 27 49.79  .01169 1.0140 149.2 17.6 +42 122 99.8   60  82
2016 04 17 08  15 35 12.553   +03 34 29.45  .01124 1.0136 148.5 17.6 +51 138  117   67  82
2016 04 17 09  15 38 32.415   +03 41 37.12  .01079 1.0131 147.7 17.5 +57 160  137   74  82
2016 04 17 10  15 42 08.880   +03 49 15.29  .01035 1.0127 146.9 17.4 +58 186  162   82  82
2016 04 17 11  15 46 04.771   +03 57 26.82  .00991 1.0122 146.0 17.3 +55 211  193   92  82
2016 04 17 12  15 50 23.350   +04 06 15.05  .00948 1.0118 145.0 17.3 +47 230  230  103  82
2016 04 17 13  15 55 08.351   +04 15 43.77  .00906 1.0113 143.9 17.2 +38 244  277  116  82
2016 04 17 14  16 00 24.028   +04 25 57.35  .00864 1.0109 142.6 17.1 +28 255  334  132  82
................
2016 04 18 12  22 36 35.904   +06 32 05.92  .00478 1.0010  47.1 20?? +21 097 3559  789  95
2016 04 18 13  22 54 01.284   +06 06 24.00  .00506 1.0006  42.9 20?? +29 104 2834  720  96
2016 04 18 14  23 09 25.347   +05 41 40.43  .00537 1.0001  39.3 21?? +37 113 2239  654  96
2016 04 18 15  23 23 00.472   +05 18 20.49  .00570 0.9997  36.1 22?? +46 124 1763  593  96
2016 04 18 16  23 34 59.755   +04 56 36.31  .00605 0.9992  33.3 22?? +53 139 1389  539  97
2016 04 18 17  23 45 35.863   +04 36 31.33  .00642 0.9988  30.8 23?? +58 159 1097  490  97
2016 04 18 18  23 55 00.425   +04 18 03.64  .00680 0.9983  28.7 23?? +59 183  871  446  97
2016 04 18 19  00 03 23.780   +04 01 08.33  .00719 0.9979  26.8 24?? +56 206  695  408  97
2016 04 18 20  00 10 54.914   +03 45 39.04  .00760 0.9974  25.1 24?? +49 225  558  374  97
2016 04 18 21  00 17 41.520   +03 31 28.85  .00801 0.9970  23.6 25?? +41 239  451  344  97
2016 04 18 22  00 23 50.094   +03 18 30.87  .00844 0.9965  22.3 25?? +31 250  367  317  98
................